Location: Appeville
(49.3218°N, 1.3427°W)
Time: 23:09:20
(UTC+00:00)

CZ-4B R/B - Pass Details

Date: 08 December 2019
Orbit: 809 x 881 km, 99.1° (Epoch: 20 January)

Event Time Altitude Azimuth Distance (km) Brightness Sun altitude
Rises 05:50:46 0° 16° (NNE) 3,438 6.4 -18.0°
Reaches altitude 10° 05:53:08 10° 17° (NNE) 2,507 5.7 -17.6°
Maximum altitude 05:58:44 80° 105° (ESE) 888 3.4 -16.7°
Drops below altitude 10° 06:04:22 10° 193° (SSW) 2,525 5.7 -15.9°
Sets 06:06:46 0° 194° (SSW) 3,464 6.4 -15.5°
